Location: Unspecified
(0.0000°N, 0.0000°E)
Time: 23:18:46
(UTC+00:00)

Vanguard 2 - Pass Details

Date: 09 October 2020
Orbit: 554 x 2937 km, 32.9° (Epoch: 28 October)

Event Time Altitude Azimuth Distance (km) Brightness Sun altitude
Rises 18:37:41 0° 215° (SW) 5,329 12.5 -12.6°
Reaches altitude 10° 18:41:34 10° 204° (SSW) 4,667 11.9 -13.5°
Maximum altitude 18:53:21 30° 147° (SSE) 3,985 10.9 -16.5°
Enters shadow 19:03:04 19° 105° (ESE) 5,006 11.1 -18.9°
Drops below altitude 10° 19:07:44 10° 93° (E) 5,766 - -20.0°
Sets 19:13:10 0° 83° (E) 6,740 - -21.4°
